Location: Lecco
(45.8566°N, 9.3977°E)
Time: 13:22:00
(UTC+02:00)

Explorer 11/Cluster Stage 4 - Pass Details

Date: 16 August 2020
Orbit: 467 x 1258 km, 28.8° (Epoch: 24 September)

Event Time Altitude Azimuth Distance (km) Brightness Sun altitude
Rises 01:28:35 0° 252° (WSW) 4,161 - -30.5°
Reaches altitude 10° 01:32:45 10° 233° (SW) 3,227 - -30.5°
Maximum altitude 01:37:25 16° 198° (SSW) 2,754 - -30.4°
Drops below altitude 10° 01:41:59 10° 163° (SSE) 3,156 - -30.4°
Sets 01:46:01 0° 144° (SE) 4,026 - -30.3°
